{"data":{"norad_id":47739,"intl_designator":"2021-017T","name":"STARLINK-2150","alt_names":[],"object_type":"PAYLOAD","status":"ACTIVE","operator":null,"country":"US","launch_date":"2021-03-04","launch_site_code":"AFETR","launch_vehicle":null,"mission":null,"orbit_class":"UNKNOWN","rcs_meters":null,"size_class":null,"mass_kg":null,"dimensions":null,"purposes":["comms"],"wikipedia_slug":null,"has_3d_model":false,"image_url":null,"decayed_at":null,"tle_current":{"epoch":"2026-05-25T04:31:19.354080Z","epoch_age_seconds":69021,"freshness":"FRESH","line1":"1 47739U 21017T   26145.18841845  .00000799  00000+0  37513-4 0  9995","line2":"2 47739  53.1584 223.4092 0001308  84.2134 275.9016 15.31703375289402","mean_motion":15.31703375,"eccentricity":0.0001308,"inclination_deg":53.1584,"raan_deg":223.4092,"arg_perigee_deg":84.2134,"mean_anomaly_deg":275.9016,"bstar":3.7513e-5,"rev_number":28940,"period_min":94.012980809682,"perigee_km":469.8341027497,"apogee_km":471.62576633978,"semimajor_km":6848.8669345447,"source":"CELESTRAK","updated_at":"2026-05-25T13:38:16.566024Z"}}}